ROMMA est une association bénévole à but non lucratif. Votre soutien est indispensable : ADHERER à ROMMA ou FAIRE un DON

Crest - (26, Drôme)

Vallée de la Drôme (315 m)   Longitude: 5°2' E   Latitude: 44°44' N Station partenaire n°62
 

Détail journalier du     <<     >>

Température Precipitation Humidité Pression Vent Dir Rafale Dir. rafale Ensol.
Heure (°C) (mm) (%) (hPa) (km/h) (km/h) (min)
01:00 5.7092101616SSO29SSO0
02:00 5.9089101616SSO29SO0
03:00 6.4086101616SSO34NNO0
04:00 6.2087101615SSO32SSO0
05:00 6.2085101613SSO29SSO0
06:00 6.2085101615SSO27NNO0
07:00 6.2085101715NE32NE0
08:00 5.9089101713NE29SO0
09:00 5.4092101814NE31SO0
10:00 5.1091101914NE31NE0
11:00 4.8092101915NE39ENE0
12:00 4.6092102018NE37SO0
13:00 4.6092102015SO35SO0
14:00 4.60.391101914NE35ENE0
15:00 4.2090101918SO35SO0
16:00 3.8091102017SO34NE0
17:00 3.2090102021SO42SSO0
18:00 3.1089102022SO40NNO0
19:00 3.1088102119SO39NNO0
20:00 2.7086102120SO44NNO0
21:00 2.6084102125SO48SO0
22:00 2.3081102131SO56SSO0
23:00 2.0081102232SO53SSO0
minuit 1.7081102227SO52SO0

Graphique du 02-12-2019

 

Serveur OMMA